Regional Weather Roundup
Issued by NWS

Home | Current Version | Previous Version | Text Only | Print | Product List | Glossary On
Versions: 1 2 3 4 5 6 7 8 9 10 11 12 13 14 15 16 17 18 19 20 21 22 23 24 25 26 27 28 29 30 31 32 33 34 35 36 37 38 39 40 41 42 43 44 45 46 47 48 49 50
000
ASUS43 KLOT 121406
RWRIL

ILLINOIS REGIONAL WEATHER ROUNDUP
NATIONAL WEATHER SERVICE CHICAGO/ROMEOVILLE IL
900 AM CDT FRI APR 12 2024

NOTE: "FAIR" INDICATES FEW OR NO CLOUDS BELOW 12,000 FEET WITH NO
SIGNIFICANT WEATHER AND/OR OBSTRUCTIONS TO VISIBILITY.

* THESE STATIONS ARE NOT UNDER NWS QUALITY CONTROL. THEY ALSO MAY NOT
  REPORT WEATHER SUCH AS PRECIPITATION OR FOG.

ILZ001-002-007-009-015-016-024-121500-
NORTHWEST ILLINOIS

CITY           SKY/WX    TMP DP  RH WIND       PRES   REMARKS
MOLINE         SUNNY     51  41  68 NW18G25   29.88R TC  11
STERLING*      MOSUNNY   52  43  71 NW15G32   29.82R TC  11
$$

ILZ003-004-008-010-011-017-018-121500-
NORTH CENTRAL ILLINOIS

CITY           SKY/WX    TMP DP  RH WIND       PRES   REMARKS
ROCKFORD       MOSUNNY   53  41  63 NW23G35   29.79R TC  12
FREEPORT*      MOSUNNY   51  42  72 NW17G26   29.81R TC  10
ROCHELLE*      MOSUNNY   51  39  65 NW16G28   29.78R TC  10
DE KALB*       MOSUNNY   50  40  68 NW20G28   29.75R TC  10
PERU*          PTSUNNY   53  44  70 NW22G35   29.79R TC  12
$$

ILZ005-006-012>014-019>023-121500-
NORTHEAST ILLINOIS

CITY           SKY/WX    TMP DP  RH WIND       PRES   REMARKS
CHICAGO-OHARE  MOSUNNY   53  41  63 NW20G29   29.68R TC  12
CHICAGO-MIDWAY PTSUNNY   53  42  66 NW21G28   29.69R TC  12
AURORA         PTSUNNY   50  43  77 NW17G31   29.73R TC  10
JOLIET*        MOSUNNY   53  44  71 NW9G23    29.73R TC  12
WAUKEGAN       MOSUNNY   52  41  66 NW15G25   29.67R TC  11
DUPAGE AIRPORT MOSUNNY   52  42  69 NW22G31   29.71R TC  11
KANKAKEE*      CLOUDY    50  44  80 NW15G22   29.74R TC  10
WHEELING       MOSUNNY   53  42  66 NW20G29   29.70R TC  12
MORRIS*        PTSUNNY   51  44  77 NW18G29   29.74R TC  11
ROMEOVILLE*    MOSUNNY   52  45  76 NW13G23   29.72R TC  11
LANSING*       MOSUNNY   50  47  88 NW10      29.69R TC  10
NORTHERLY ISL*   N/A     51  40  65 NW18        N/A  TC  11
$$

LMZ740>746-121500-
SOUTHERN LAKE MICHIGAN

STATION/POSITION SKY/WX   TEMP    WIND        PRES    VSBY  WAVE
                          AIR SEA DIR/SP/G                  HT/PER
                          (F)     (DEG/KT/KT) (MB)    (MI)  (FT/S)
HARRISON CRIB              53     300/ 26/ 31   N/A
NORTHERLY ISL              52     300/ 12/ 18   N/A
CALUMET HARBOR             51     270/ 11/ 15 1004.0R
BURNS HARBOR               48     280/  8/ 10 1005.1R
MICHIGAN CITY              46     270/ 15/ 17 1004.0R
$$

ILZ025>027-034>036-040-047-049-050-058-095>099-121500-
WEST-CENTRAL ILLINOIS

CITY           SKY/WX    TMP DP  RH WIND       PRES   REMARKS
QUINCY         SUNNY     51  37  58 NW18G29   29.98R TC  11
GALESBURG*     SUNNY     48  44  84 NW17G28   29.90R TC   9
MACOMB*        SUNNY     51  36  55 NW23      29.95R TC  11
JACKSONVILLE*  PTSUNNY   50  36  59 W18G26    29.93R TC  10
PITTSFIELD*    SUNNY     52  37  57 W12G25    29.97R TC  11
$$

ILZ028>032-037-038-041>044-048-051>054-059>061-121500-
CENTRAL ILLINOIS

CITY           SKY/WX    TMP DP  RH WIND       PRES   REMARKS
PONTIAC        PTSUNNY   50  45  80 NW22G30   29.78R TC  10
BLOOMINGTON    CLOUDY    49  46  90 NW23G30   29.82R TC   9
DECATUR        LGT RAIN  47  45  93 W16G28    29.84R TC   8
PEORIA         PTSUNNY   50  43  77 NW16G25   29.86R TC  10
LACON*         PTSUNNY   51  42  71 NW17G28   29.82R TC  11
LINCOLN*       CLOUDY    48  45  90 W12       29.86R TC   9
SPRINGFIELD    CLOUDY    49  40  71 W20G30    29.89R TC   9
TAYLORVILLE    NOT AVBL
$$

ILZ033-039-045-046-055>057-062-063-121500-
EAST-CENTRAL ILLINOIS

CITY           SKY/WX    TMP DP  RH WIND       PRES   REMARKS
CHAMPAIGN      CLOUDY    49  44  83 NW25G33   29.79R TC   9
DANVILLE*      CLOUDY    49  46  86 NW16G25   29.75R TC  10
RANTOUL*       CLOUDY    49  45  87 NW24G33   29.77R TC  10
MATTOON        LGT RAIN  45  43  93 W24G38    29.81R TC   7
PARIS*         CLOUDY    46  44  95 W20G26    29.78R TC   8
$$

ILZ079-100>102-121500-
SOUTHWEST ILLINOIS

CITY           SKY/WX    TMP DP  RH WIND       PRES   REMARKS
ALTON          SUNNY     52  37  58 NW17G30   29.95R TC  11
BELLEVILLE     PTSUNNY   55  37  51 W23G35    29.94R TC  13
CAHOKIA*       SUNNY     54  37  52 NW21G32   29.97R TC  12
SPARTA*        SUNNY     52  37  55 W15G24    29.97R TC  11
$$

ILZ064>066-069>071-074>076-080>082-084>086-088>090-092>094-121500-
SOUTH-CENTRAL ILLINOIS

CITY           SKY/WX    TMP DP  RH WIND       PRES   REMARKS
CARBONDALE     SUNNY     56  36  47 W18G28    29.95R TC  13
CAIRO*         SUNNY     55  38  52 NW15G22   30.01R TC  13
EFFINGHAM*     HVY RAIN  45  42  89 W15       29.88R TC   7
MARION         SUNNY     55  37  50 W20G28    29.95R TC  13
MT. VERNON     PTSUNNY   52  38  58 W9G21     29.92R TC  11
CENTRALIA*     CLOUDY    51  37  60 W20G29    29.93R TC  11
SALEM*         DRIZZLE   50  39  66 W14G20    29.91R TC  10
METROPOLIS*    SUNNY     55  35  47 W10G16    29.98R TC  13
$$

ILZ067-068-072-073-078-083-087-091-121500-
SOUTHEAST ILLINOIS

CITY           SKY/WX    TMP DP  RH WIND       PRES   REMARKS
LAWRENCEVILLE  LGT RAIN  50  39  66 W17G25    29.83R TC  10
FLORA*         LGT RAIN  48  41  76 W20G25    29.89R TC   9
FAIRFIELD*     PTSUNNY   51  38  59 W13G23    29.90R TC  11
CARMI*         SUNNY     55  39  55 W26G35    29.89R TC  13
$$

ABBREVIATIONS USED IN REMARKS
   TC - TEMPERATURE IN CELSIUS
  WCI - WIND CHILL INDEX
   HX - HEAT INDEX
  VSB - VISIBILITY
$$




USA.gov is the U.S. government's official web portal to all federal, state and local government web resources and services.